Regional Weather Roundup
Issued by NWS

Home | Current Version | Previous Version | Graphics & Text | Print | Product List | Glossary On
Versions: 1 2 3 4 5 6 7 8 9 10 11 12 13 14 15 16 17 18 19 20 21 22 23 24 25 26 27 28 29 30 31 32 33 34 35 36 37 38 39 40 41 42 43 44 45 46 47 48 49 50
000
ASUS43 KFSD 251610
RWRSD

WEATHER ROUNDUP FOR SOUTH DAKOTA
NATIONAL WEATHER SERVICE SIOUX FALLS SD
1000 AM CST SUN JAN 25 2015

NOTE: "FAIR" INDICATES FEW OR NO CLOUDS BELOW 12,000 FEET WITH NO
SIGNIFICANT WEATHER AND/OR OBSTRUCTIONS TO VISIBILITY.


SDZ001>005-009-010-012>017-251700-
NORTHWEST AND NORTH CENTRAL SOUTH DAKOTA

CITY           SKY/WX    TMP DP  RH WIND       PRES   REMARKS
BUFFALO          N/A     32  26  78 W7        29.94F WCI  26
FAITH            N/A     35  27  72 NW13      30.02S WCI  26
MOBRIDGE       CLOUDY    37  34  89 NW7       29.97S
$$

SDZ012>016-024>037-041>051-057-063-072>074-251700-
SOUTHWEST AND SOUTH CENTRAL SOUTH DAKOTA

CITY           SKY/WX    TMP DP  RH WIND       PRES   REMARKS
RAPID CTY ARPT SUNNY     36  23  59 VRB6      30.05R
PIERRE         CLOUDY    37  31  78 NW15      30.02R
CUSTER         PTSUNNY   36  10  34 W5        30.04R
ELLSWORTH AFB  SUNNY     38  22  52 N8        30.04R
PHILIP         SUNNY     38  27  64 NW16      30.07R
PINE RIDGE     SUNNY     33  26  75 CALM      30.09R
WINNER         CLOUDY    38  31  76 NW15      30.03R
$$

SDZ004>011-016>023-039-040-251700-
NORTHEAST SOUTH DAKOTA

CITY           SKY/WX    TMP DP  RH WIND       PRES   REMARKS
ABERDEEN       CLOUDY    27  23  85 NE7       30.02R WCI  19
WATERTOWN      CLOUDY    28  24  85 N9        29.96R WCI  19
SISSETON         N/A     23  19  85 N14       30.02R WCI  11
$$

SDZ017-020-022-023-036>040-048>070-251700-
SOUTHEAST SOUTH DAKOTA

CITY           SKY/WX    TMP DP  RH WIND       PRES   REMARKS
SIOUX FALLS    CLOUDY    33  31  92 N8        29.98R WCI  26
HURON          CLOUDY    30  28  92 N7        30.02R WCI  23
CHAMBERLAIN    DRIZZLE   35  33  93 NW9       30.02R WCI  28
MITCHELL       CLOUDY    32  30  92 NW8       30.02R WCI  25
YANKTON        CLOUDY    34  30  86 NW13      30.00R WCI  25
$$

ABBREVIATIONS USED IN REMARKS
   TC - TEMPERATURE IN CELSIUS
  WCI - WIND CHILL INDEX
   HX - HEAT INDEX
  VSB - VISIBILITY



USA.gov is the U.S. government's official web portal to all federal, state and local government web resources and services.